BOX393S EDDP-EDDK

Flight info

Callsign BOX393S
Flight time 0h 45m
Altitude 32000
Route ORTAG5S/26L ORTAG Q230 KUMER DCT TOLTA DCT PODER Z189 RUNER T858 KOPAG KOPAG1E
Aircraft B77L/H-SDE1E2E3FGHIJ2J3J4J5M1RWXY/LB1D1

Departure

Time 2026-04-23 14:23
Airport Leipzig/Halle Airport (EDDP)

Arrival

Time 2026-04-23 15:08
Airport Cologne Bonn Airport (EDDK)
Time Latitude Longitude Altitude Speed Heading
2026-04-23 13:52 51.40790 12.23404 469 ft 0 kts 85°
2026-04-23 14:11 51.40790 12.23400 469 ft 2 kts 86°
2026-04-23 14:12 51.40789 12.23371 466 ft 3 kts 86°
2026-04-23 14:12 51.40785 12.23342 464 ft 3 kts 53°
2026-04-23 14:12 51.40775 12.23322 463 ft 3 kts 39°
2026-04-23 14:12 51.40758 12.23307 467 ft 3 kts 10°
2026-04-23 14:13 51.40739 12.23306 466 ft 3 kts 351°
2026-04-23 14:13 51.40723 12.23310 465 ft 1 kts 355°
2026-04-23 14:13 51.40721 12.23310 465 ft 1 kts 355°
2026-04-23 14:17 51.40756 12.23306 468 ft 11 kts 355°
2026-04-23 14:18 51.40875 12.23293 466 ft 22 kts 356°
2026-04-23 14:18 51.40999 12.23284 468 ft 12 kts 14°
2026-04-23 14:18 51.41038 12.23393 473 ft 12 kts 81°
2026-04-23 14:18 51.41047 12.23549 469 ft 19 kts 86°
2026-04-23 14:19 51.41058 12.23786 474 ft 22 kts 85°
2026-04-23 14:19 51.41072 12.24060 470 ft 27 kts 85°
2026-04-23 14:19 51.41088 12.24383 469 ft 31 kts 85°
2026-04-23 14:19 51.41102 12.24739 470 ft 31 kts 85°
2026-04-23 14:20 51.41118 12.25074 469 ft 30 kts 85°
2026-04-23 14:20 51.41134 12.25404 473 ft 28 kts 85°
2026-04-23 14:20 51.41165 12.25602 473 ft 11 kts 36°
2026-04-23 14:20 51.41243 12.25621 481 ft 12 kts
2026-04-23 14:21 51.41322 12.25602 476 ft 12 kts 341°
2026-04-23 14:21 51.41393 12.25547 476 ft 9 kts 305°
2026-04-23 14:21 51.41396 12.25489 481 ft 0 kts 266°
2026-04-23 14:22 51.41396 12.25488 481 ft 2 kts 266°
2026-04-23 14:22 51.41380 12.25146 478 ft 66 kts 265°
2026-04-23 14:22 51.41330 12.24055 476 ft 128 kts 265°
2026-04-23 14:22 51.41254 12.22346 467 ft 176 kts 266°
2026-04-23 14:23 51.41143 12.20328 897 ft 178 kts 269°
2026-04-23 14:23 51.41052 12.18351 1602 ft 176 kts 269°
2026-04-23 14:23 51.40967 12.16401 2305 ft 178 kts 270°
2026-04-23 14:23 51.40875 12.14319 2547 ft 201 kts 270°
2026-04-23 14:24 51.40769 12.11944 2773 ft 227 kts 269°
2026-04-23 14:24 51.40645 12.09315 3205 ft 243 kts 269°
2026-04-23 14:24 51.40513 12.06601 3971 ft 247 kts 269°
2026-04-23 14:24 51.40377 12.03843 4732 ft 251 kts 269°
2026-04-23 14:25 51.40239 12.01039 5545 ft 253 kts 269°
2026-04-23 14:25 51.40104 11.98297 6251 ft 258 kts 270°
2026-04-23 14:25 51.39960 11.95394 6954 ft 264 kts 270°
2026-04-23 14:25 51.39813 11.92443 7665 ft 268 kts 270°
2026-04-23 14:26 51.39663 11.89446 8375 ft 272 kts 270°
2026-04-23 14:26 51.39512 11.86409 9070 ft 276 kts 270°
2026-04-23 14:26 51.39358 11.83323 9750 ft 280 kts 270°
2026-04-23 14:26 51.39202 11.80193 10413 ft 285 kts 270°
2026-04-23 14:27 51.39039 11.76947 10757 ft 304 kts 270°
2026-04-23 14:27 51.38874 11.73446 10933 ft 325 kts 272°
2026-04-23 14:27 51.39094 11.69795 11072 ft 339 kts 287°
2026-04-23 14:27 51.39700 11.66036 11358 ft 357 kts 289°
2026-04-23 14:28 51.40358 11.62134 11971 ft 367 kts 289°
2026-04-23 14:28 51.41018 11.58143 12777 ft 373 kts 288°
2026-04-23 14:28 51.41671 11.54093 13663 ft 378 kts 288°
2026-04-23 14:28 51.42320 11.49983 14453 ft 384 kts 288°
2026-04-23 14:29 51.42970 11.45796 15175 ft 390 kts 288°
2026-04-23 14:29 51.43624 11.41549 15882 ft 396 kts 287°
2026-04-23 14:29 51.44285 11.37228 16593 ft 401 kts 287°
2026-04-23 14:29 51.44951 11.32853 17315 ft 407 kts 287°
2026-04-23 14:30 51.45625 11.28413 18028 ft 412 kts 287°
2026-04-23 14:30 51.46305 11.23917 18692 ft 418 kts 287°
2026-04-23 14:30 51.46994 11.19357 19296 ft 423 kts 287°
2026-04-23 14:30 51.47690 11.14747 19915 ft 428 kts 287°
2026-04-23 14:31 51.48392 11.10075 20470 ft 434 kts 287°
2026-04-23 14:31 51.49074 11.05387 21016 ft 440 kts 285°
2026-04-23 14:31 51.49664 11.00542 21616 ft 446 kts 283°
2026-04-23 14:31 51.50185 10.95815 22207 ft 450 kts 283°
2026-04-23 14:32 51.50724 10.90831 22803 ft 454 kts 283°
2026-04-23 14:32 51.51275 10.85817 23371 ft 459 kts 283°
2026-04-23 14:32 51.51845 10.80746 23934 ft 464 kts 283°
2026-04-23 14:32 51.52426 10.75631 24412 ft 468 kts 283°
2026-04-23 14:33 51.53014 10.70467 24916 ft 471 kts 283°
2026-04-23 14:33 51.53602 10.65276 25399 ft 475 kts 283°
2026-04-23 14:33 51.54213 10.60035 25888 ft 478 kts 283°
2026-04-23 14:33 51.54906 10.54797 26359 ft 481 kts 284°
2026-04-23 14:34 51.55646 10.49527 26821 ft 485 kts 285°
2026-04-23 14:34 51.56399 10.44222 27281 ft 489 kts 285°
2026-04-23 14:34 51.57151 10.38869 27732 ft 493 kts 285°
2026-04-23 14:34 51.57899 10.33462 28173 ft 497 kts 284°
2026-04-23 14:35 51.58639 10.28021 28602 ft 500 kts 284°
2026-04-23 14:35 51.59378 10.22536 29024 ft 504 kts 284°
2026-04-23 14:35 51.60115 10.17018 29432 ft 506 kts 284°
2026-04-23 14:35 51.60852 10.11477 29957 ft 507 kts 284°
2026-04-23 14:36 51.61586 10.05935 30558 ft 504 kts 283°
2026-04-23 14:36 51.62311 10.00439 31122 ft 502 kts 283°
2026-04-23 14:36 51.63008 9.95146 31598 ft 501 kts 283°
2026-04-23 14:36 51.63728 9.89660 32020 ft 501 kts 283°
2026-04-23 14:37 51.64448 9.84161 32358 ft 503 kts 283°
2026-04-23 14:37 51.65169 9.78629 32304 ft 506 kts 283°
2026-04-23 14:37 51.66601 9.67580 32297 ft 501 kts 283°
2026-04-23 14:38 51.67928 9.56586 32315 ft 501 kts 278°
2026-04-23 14:38 51.68170 9.45366 32321 ft 502 kts 267°
2026-04-23 14:39 51.67306 9.34217 32330 ft 502 kts 261°
2026-04-23 14:39 51.66256 9.23133 32317 ft 505 kts 261°
2026-04-23 14:40 51.65232 9.11934 32326 ft 506 kts 262°
2026-04-23 14:40 51.64219 9.00632 32334 ft 507 kts 262°
2026-04-23 14:41 51.63226 8.89651 32340 ft 508 kts 262°
2026-04-23 14:41 51.62189 8.78425 32341 ft 505 kts 259°
2026-04-23 14:42 51.61178 8.73046 32342 ft 502 kts 243°
2026-04-23 14:42 51.59287 8.68361 32354 ft 498 kts 227°
2026-04-23 14:42 51.56789 8.64568 32347 ft 493 kts 213°
2026-04-23 14:42 51.53856 8.61845 32359 ft 482 kts 204°
2026-04-23 14:43 51.50897 8.59361 32189 ft 478 kts 205°
2026-04-23 14:43 51.47964 8.56849 31662 ft 477 kts 205°
2026-04-23 14:43 51.45058 8.54304 31174 ft 473 kts 206°
2026-04-23 14:43 51.42189 8.51757 30705 ft 469 kts 206°
2026-04-23 14:44 51.39348 8.49220 30172 ft 466 kts 206°
2026-04-23 14:44 51.36527 8.46705 29631 ft 461 kts 206°
2026-04-23 14:44 51.33733 8.44223 29156 ft 456 kts 206°
2026-04-23 14:44 51.30991 8.41735 28641 ft 452 kts 210°
2026-04-23 14:45 51.28507 8.38686 28185 ft 450 kts 221°
2026-04-23 14:45 51.26375 8.35064 27719 ft 447 kts 229°
2026-04-23 14:45 51.24614 8.30990 27254 ft 445 kts 239°
2026-04-23 14:45 51.23091 8.26723 26794 ft 441 kts 239°
2026-04-23 14:46 51.21592 8.22459 26351 ft 438 kts 239°
2026-04-23 14:46 51.20098 8.18245 25913 ft 435 kts 239°
2026-04-23 14:46 51.18600 8.14080 25457 ft 432 kts 239°
2026-04-23 14:46 51.17098 8.09947 25020 ft 430 kts 239°
2026-04-23 14:47 51.15596 8.05843 24591 ft 427 kts 238°
2026-04-23 14:47 51.14103 8.01773 24144 ft 425 kts 238°
2026-04-23 14:47 51.12660 7.97845 23678 ft 423 kts 238°
2026-04-23 14:47 51.11180 7.93813 23196 ft 421 kts 239°
2026-04-23 14:48 51.09715 7.89802 22736 ft 418 kts 239°
2026-04-23 14:48 51.08242 7.85862 22281 ft 410 kts 234°
2026-04-23 14:48 51.06283 7.82660 21886 ft 402 kts 213°
2026-04-23 14:48 51.03835 7.80612 21459 ft 396 kts 198°
2026-04-23 14:49 51.01167 7.79670 21030 ft 391 kts 186°
2026-04-23 14:49 50.98518 7.79178 20616 ft 388 kts 185°
2026-04-23 14:49 50.95844 7.78698 20183 ft 386 kts 185°
2026-04-23 14:49 50.93148 7.78169 19768 ft 384 kts 186°
2026-04-23 14:50 50.90512 7.77618 19511 ft 378 kts 186°
2026-04-23 14:50 50.87960 7.76991 19331 ft 365 kts 194°
2026-04-23 14:50 50.85733 7.75349 19172 ft 354 kts 217°
2026-04-23 14:50 50.83987 7.72706 19042 ft 342 kts 234°
2026-04-23 14:51 50.82807 7.69535 18905 ft 329 kts 247°
2026-04-23 14:51 50.81880 7.66287 18766 ft 318 kts 248°
2026-04-23 14:51 50.80980 7.63144 18621 ft 308 kts 247°
2026-04-23 14:51 50.80097 7.60136 18470 ft 296 kts 247°
2026-04-23 14:52 50.79239 7.57246 18315 ft 285 kts 247°
2026-04-23 14:52 50.78387 7.54380 18001 ft 291 kts 248°
2026-04-23 14:52 50.77887 7.51299 17669 ft 292 kts 275°
2026-04-23 14:52 50.78327 7.48234 17355 ft 283 kts 302°
2026-04-23 14:53 50.79525 7.45859 17025 ft 273 kts 323°
2026-04-23 14:53 50.81147 7.44465 16669 ft 262 kts 351°
2026-04-23 14:53 50.82906 7.44569 16397 ft 251 kts 19°
2026-04-23 14:53 50.84449 7.45865 16088 ft 256 kts 36°
2026-04-23 14:54 50.85718 7.47904 15744 ft 267 kts 56°
2026-04-23 14:54 50.86601 7.50527 15438 ft 272 kts 62°
2026-04-23 14:54 50.87379 7.53269 15069 ft 273 kts 64°
2026-04-23 14:54 50.88143 7.56011 14722 ft 271 kts 63°
2026-04-23 14:55 50.88922 7.58718 14367 ft 269 kts 62°
2026-04-23 14:55 50.89706 7.61397 14012 ft 267 kts 62°
2026-04-23 14:55 50.90485 7.64044 13645 ft 264 kts 62°
2026-04-23 14:55 50.91260 7.66659 13297 ft 260 kts 62°
2026-04-23 14:56 50.92023 7.69231 12956 ft 256 kts 62°
2026-04-23 14:56 50.92521 7.70909 12744 ft 252 kts 62°
2026-04-23 14:56 50.93264 7.73403 12427 ft 248 kts 61°
2026-04-23 14:56 50.93993 7.75853 12107 ft 245 kts 62°
2026-04-23 14:57 50.94728 7.78323 11836 ft 252 kts 62°
2026-04-23 14:57 50.95479 7.80848 11518 ft 254 kts 62°
2026-04-23 14:57 50.96222 7.83371 11185 ft 251 kts 62°
2026-04-23 14:57 50.96983 7.85825 10851 ft 242 kts 52°
2026-04-23 14:58 50.98187 7.87521 10556 ft 228 kts 20°
2026-04-23 14:58 50.99723 7.88058 10335 ft 231 kts
2026-04-23 14:58 51.01333 7.87706 9998 ft 235 kts 340°
2026-04-23 14:58 51.02828 7.86668 9721 ft 235 kts 335°
2026-04-23 14:59 51.04308 7.85518 9440 ft 236 kts 331°
2026-04-23 14:59 51.05486 7.83775 9122 ft 232 kts 302°
2026-04-23 14:59 51.05992 7.81369 8857 ft 234 kts 279°
2026-04-23 14:59 51.05911 7.78729 8583 ft 248 kts 255°
2026-04-23 15:00 51.05206 7.76179 8313 ft 255 kts 247°
2026-04-23 15:00 51.04447 7.73612 8001 ft 257 kts 248°
2026-04-23 15:00 51.03697 7.71048 7684 ft 254 kts 248°
2026-04-23 15:00 51.02946 7.68521 7383 ft 251 kts 248°
2026-04-23 15:01 51.02203 7.66047 7071 ft 246 kts 248°
2026-04-23 15:01 51.01471 7.63614 6794 ft 242 kts 248°
2026-04-23 15:01 51.00751 7.61222 6457 ft 238 kts 248°
2026-04-23 15:01 51.00045 7.58875 6177 ft 235 kts 248°
2026-04-23 15:02 50.99332 7.56504 5907 ft 242 kts 247°
2026-04-23 15:02 50.98608 7.54088 5572 ft 242 kts 248°
2026-04-23 15:02 50.97886 7.51689 5261 ft 240 kts 248°
2026-04-23 15:02 50.97156 7.49280 4933 ft 242 kts 248°
2026-04-23 15:03 50.96437 7.46889 4582 ft 239 kts 248°
2026-04-23 15:03 50.95723 7.44522 4261 ft 236 kts 247°
2026-04-23 15:03 50.95025 7.42208 4002 ft 229 kts 247°
2026-04-23 15:03 50.94348 7.39967 3667 ft 222 kts 248°
2026-04-23 15:04 50.93692 7.37778 3341 ft 217 kts 248°
2026-04-23 15:04 50.93073 7.35730 3068 ft 199 kts 249°
2026-04-23 15:04 50.92484 7.33794 2800 ft 188 kts 249°
2026-04-23 15:04 50.91920 7.31914 2565 ft 188 kts 248°
2026-04-23 15:05 50.91365 7.30084 2287 ft 178 kts 249°
2026-04-23 15:05 50.90865 7.28422 2109 ft 164 kts 248°
2026-04-23 15:05 50.90384 7.26841 1880 ft 154 kts 250°
2026-04-23 15:05 50.89923 7.25307 1667 ft 152 kts 251°
2026-04-23 15:06 50.89461 7.23769 1439 ft 153 kts 248°
2026-04-23 15:06 50.89006 7.22270 1233 ft 153 kts 248°
2026-04-23 15:06 50.88556 7.20783 1008 ft 149 kts 246°
2026-04-23 15:06 50.88098 7.19304 889 ft 151 kts 247°
2026-04-23 15:07 50.87645 7.17797 634 ft 149 kts 248°
2026-04-23 15:07 50.87200 7.16337 423 ft 145 kts 250°
2026-04-23 15:07 50.86776 7.14909 265 ft 135 kts 242°
2026-04-23 15:07 50.86425 7.13745 255 ft 96 kts 245°
2026-04-23 15:08 50.86198 7.13010 247 ft 57 kts 242°
2026-04-23 15:08 50.86077 7.12567 249 ft 32 kts 239°
2026-04-23 15:08 50.86069 7.12388 247 ft 15 kts 327°
2026-04-23 15:09 50.86286 7.12302 238 ft 18 kts 348°
2026-04-23 15:09 50.86410 7.12264 238 ft 18 kts 348°
2026-04-23 15:09 50.86535 7.12219 237 ft 18 kts 346°
2026-04-23 15:09 50.86658 7.12166 239 ft 18 kts 344°
2026-04-23 15:10 50.86739 7.12130 236 ft 18 kts 344°
2026-04-23 15:10 50.86903 7.12062 236 ft 18 kts 350°
2026-04-23 15:10 50.87029 7.12069 239 ft 18 kts 20°
2026-04-23 15:10 50.87126 7.12197 239 ft 18 kts 46°
2026-04-23 15:11 50.87132 7.12375 240 ft 18 kts 135°
2026-04-23 15:11 50.87037 7.12510 241 ft 18 kts 137°
2026-04-23 15:11 50.86943 7.12648 240 ft 18 kts 137°
2026-04-23 15:11 50.86847 7.12781 241 ft 18 kts 139°
2026-04-23 15:12 50.86771 7.12900 242 ft 5 kts 114°
2026-04-23 15:12 50.86792 7.12966 242 ft 11 kts 54°
2026-04-23 15:12 50.86820 7.13019 242 ft 4 kts 48°
2026-04-23 15:12 50.86829 7.13034 242 ft 0 kts 47°